Regional Weather Roundup
Issued by NWS Sioux Falls, SD

Home | Current Version | Previous Version | Graphics & Text | Print | Product List | Glossary Off
Versions: 1 2 3 4 5 6 7 8 9 10 11 12 13 14 15 16 17 18 19 20 21 22 23 24 25 26 27 28 29 30 31 32 33 34 35 36 37 38 39 40 41 42 43 44 45 46 47 48 49 50

000
ASUS43 KFSD 230702
RWRFSD

WEATHER ROUNDUP FOR SE SOUTH DAKOTA/SW MINNESOTA/NW IOWA
NATIONAL WEATHER SERVICE SIOUX FALLS SD
200 AM CDT SAT MAY 23 2015

NOTE: "FAIR" INDICATES FEW OR NO CLOUDS BELOW 12,000 FEET WITH NO
SIGNIFICANT WEATHER AND OR OBSTRUCTIONS TO VISIBILITY.


SDZ038>040-050-052>070-230800-
SOUTHEAST SOUTH DAKOTA

CITY           SKY/WX    TMP DP  RH WIND       PRES   REMARKS
BROOKINGS      CLOUDY    54  45  71 CALM      30.22R
CHAMBERLAIN    CLOUDY    51  46  84 SE8       30.16F
HURON          MOCLDY    48  43  82 SE3       30.19S
MADISON        CLOUDY    52  45  76 CALM      30.21S
MITCHELL       CLOUDY    55  47  74 VRB3      30.19F
SIOUX FALLS    CLOUDY    57  44  62 S9        30.21R
WINNER         CLOUDY    51  45  79 SE6       30.14F
YANKTON        CLOUDY    54  46  76 NE5       30.18F
$$

MNZ071-072-080-081-089-090-097-098-230800-
SOUTHWEST MINNESOTA

CITY           SKY/WX    TMP DP  RH WIND       PRES   REMARKS
FAIRMONT       CLOUDY    57  39  51 NW5       30.21S
JACKSON        CLOUDY    55  45  67 CALM      30.22S
LUVERNE        CLOUDY    55  46  71 SW5       30.23R
MARSHALL       MOCLDY    55  41  58 CALM      30.20S
MONTEVIDEO     PTCLDY    54  43  66 CALM      30.21F
REDWOOD FALLS  MOCLDY    57  43  59 NW3       30.21S
TRACY          MOCLDY    56  44  64 SW3       30.21S
WINDOM         MOCLDY    54  43  66 CALM      30.22S
WORTHINGTON    CLOUDY    54  41  62 CALM      30.22R
$$

IAZ001>003-012>014-020>022-031-032-NEZ013-014-SDZ071-230800-
NORTHWEST IOWA

CITY           SKY/WX    TMP DP  RH WIND       PRES   REMARKS
DENISON        MOCLDY    57  48  72 S6        30.19R
ESTHERVILLE    CLOUDY    55  44  66 CALM      30.21S
SIOUX CITY     CLOUDY    56  50  80 CALM      30.19S
SPENCER        CLOUDY    57  49  74 NE3       30.21S
$$

ABBREVIATIONS USED IN REMARKS
   TC - TEMPERATURE IN CELSIUS
  WCI - WIND CHILL INDEX
   HX - HEAT INDEX
  VSB - VISIBILITY




USA.gov is the U.S. government's official web portal to all federal, state and local government web resources and services.